Regional Weather Roundup
Issued by NWS Kansas City/Pleasant Hill, MO

Home | Current Version | Previous Version | Graphics & Text | Print | Product List | Glossary Off
Versions: 1 2 3 4 5 6 7 8 9 10 11 12 13 14 15 16 17 18 19 20 21 22 23 24 25 26 27 28 29 30 31 32 33 34 35 36 37 38 39 40 41 42 43 44 45 46 47 48 49 50

000
ASUS43 KEAX 252211
RWREAX

WEATHER ROUNDUP FOR EASTERN KANSAS AND NORTHWEST MISSOURI
NATIONAL WEATHER SERVICE KANSAS CITY/PLEASANT HILL MO
500 PM CDT MON MAY 25 2015

KSZ040-057-103>105-MOZ028-029-037-043-252300-
...KANSAS CITY METROPOLITAN AREA...

CITY           SKY/WX    TMP DP  RH WIND       PRES   REMARKS
K.C. INTL      PTSUNNY   79  66  64 S20       29.81F
K.C. DOWNTOWN  MOSUNNY   81  64  56 S16G26    29.80F
LEES SUMMIT    MOSUNNY   80  64  58 S10G23    29.83F
OLATHE - IXD   MOSUNNY   81  64  56 S17G28    29.82F
OLATHE - OJC   MOSUNNY   79  66  64 S17G28    29.81F
LAWRENCE       MOSUNNY   80  64  58 S15G23    29.80F

$$

MOZ001>008-011>017-020>025-030>033-038>040-044>046-053-054-252300-
...NORTHERN AND CENTRAL MISSOURI...

CITY           SKY/WX    TMP DP  RH WIND       PRES   REMARKS
ST. JOSEPH     PTSUNNY   79  66  64 S17       29.80F
MOSBY          PTCLDY    81  63  54 S13G21    29.81F
WARRENSBURG    MOSUNNY   81  63  54 S10       29.85F
WHITEMAN AFB   MOSUNNY   80  66  62 S9        29.85
CLINTON        MOSUNNY   81  68  65 S10       29.86F
SEDALIA        SUNNY     82  65  56 S15       29.89F
WARSAW         NOT AVBL
CHILLICOTHE      N/A     80  67  64 S10G21    29.86F
KIRKSVILLE     MOSUNNY   77  68  73 S14       29.91F

$$

MOZ041-047>049-056>058-063>065-088>090-097-252300-
...EASTERN AND SOUTHERN MISSOURI...

CITY           SKY/WX    TMP DP  RH WIND       PRES   REMARKS
ST. LOUIS INTL PTSUNNY   85  66  53 S12G21    29.95F
SPIRIT OF STL  PTSUNNY   83  64  52 S10G23    29.93F
COLUMBIA       MOSUNNY   82  65  56 S13G22    29.90F
JEFFERSON CITY MOSUNNY   84  63  49 SE13      29.89F
ROLLA          SUNNY     80  66  62 S13       29.92F
OSAGE BEACH    PTSUNNY   84  64  51 S12G20    29.89F
SPRINGFIELD    MOSUNNY   81  66  60 S12       29.89F
BRANSON        PTSUNNY   79  63  57 SE8       29.93F
JOPLIN         PTSUNNY   79  66  64 S9        29.87F
WEST PLAINS    PTSUNNY   77  63  61 SE9G18    29.96F

$$

IAZ060-094-KSZ022-034>040-054-083-096-NEZ052-066-093-252300-
...KANSAS...SOUTHEAST NEBRASKA AND IOWA...

CITY           SKY/WX    TMP DP  RH WIND       PRES   REMARKS
TOPEKA         MOSUNNY   79  65  62 S16G24    29.77F
MANHATTAN      CLOUDY    77  66  68 S10       29.75F
EMPORIA        PTSUNNY   78  65  63 S16       29.79F
CHANUTE        CLOUDY    78  67  68 S16       29.83F
WICHITA        TSTM      70  60  70 S12G23    29.80R
OMAHA          MOSUNNY   81  61  50 S15       29.75F
LINCOLN        MOSUNNY   79  61  53 SW10      29.75F
FALLS CITY     LGT RAIN  74  65  73 SE14G22   29.74F
LAMONI         PTSUNNY   80  65  59 S13       29.84F
DES MOINES     MOSUNNY   79  62  56 SW22G28   29.81F

$$




USA.gov is the U.S. government's official web portal to all federal, state and local government web resources and services.